SR9NCI Weather Reports


time (UTC)temp
C
wind
direction
speed
KPH
gust
KPH
rain 1hr
cm
rain 24hr
cm
rain mn
cm
humidity
%
barometer
mb
20260905040249 18 162 3.2 4.8 0.00 0.00 0.00
20260905035848 17 180 0.0 0.0 0.00 0.00 0.00
20260905035446 17 180 0.0 1.6 0.00 0.00 0.00
20260905035045 17 193 3.2 4.8 0.00 0.00 0.00
20260905034643 18 212 4.8 6.4 0.00 0.00 0.00
20260905034241 20 202 4.8 9.7 0.00 0.00 0.00
20260905033840 20 199 3.2 4.8 0.00 0.00 0.00
20260905033438 20 180 3.2 6.4 0.00 0.00 0.00
20260905033030 19 180 1.6 3.2 0.00 0.00 0.00
20260905032627 20 180 1.6 3.2 0.00 0.00 0.00
20260905032226 20 180 1.6 3.2 0.00 0.00 0.00
20260905031825 20 180 3.2 4.8 0.00 0.00 0.00
20260905031424 19 135 1.6 4.8 0.00 0.00 0.00
20260905031021 18 135 0.0 3.2 0.00 0.00 0.00
20260905030620 18 135 0.0 1.6 0.00 0.00 0.00
20260905030219 20 146 3.2 4.8 0.00 0.00 0.00
20260905025818 20 180 1.6 3.2 0.00 0.00 0.00
20260905025414 19 180 0.0 1.6 0.00 0.00 0.00
20260905025006 19 180 0.0 1.6 0.00 0.00 0.00
20260905024605 19 180 0.0 3.2 0.00 0.00 0.00
20260905024204 20 180 0.0 0.0 0.00 0.00 0.00
20260905023803 20 180 1.6 3.2 0.00 0.00 0.00
20260905023400 20 180 1.6 3.2 0.00 0.00 0.00
20260905022959 20 180 1.6 3.2 0.00 0.00 0.00
20260905022557 20 214 3.2 6.4 0.00 0.00 0.00
20260905022156 20 315 0.0 0.0 0.00 0.00 0.00
20260905021754 20 315 3.2 6.4 0.00 0.00 0.00
20260905021352 20 312 3.2 9.7 0.00 0.00 0.00
20260905020944 20 21 1.6 3.2 0.00 0.00 0.00
20260905020542 19 21 0.0 3.2 0.00 0.00 0.00
20260905020139 20 21 0.0 3.2 0.00 0.00 0.00
20260905015738 20 21 1.6 3.2 0.00 0.00 0.00
20260905015336 20 20 1.6 3.2 0.00 0.00 0.00
20260905014936 20 21 0.0 0.0 0.00 0.00 0.00
20260905014533 20 21 0.0 1.6 0.00 0.00 0.00
20260905014132 19 21 1.6 4.8 0.00 0.00 0.00
20260905013731 20 21 1.6 4.8 0.00 0.00 0.00
20260905013329 19 21 3.2 4.8 0.00 0.00 0.00
20260905012921 20 21 3.2 6.4 0.00 0.00 0.00
20260905012518 21 21 3.2 4.8 0.00 0.00 0.00
20260905012117 20 21 0.0 1.6 0.00 0.00 0.00
20260905011716 20 2 1.6 3.2 0.00 0.00 0.00
20260905011314 20 0 0.0 3.2 0.00 0.00 0.00
20260905010912 21 0 0.0 1.6 0.00 0.00 0.00
20260905010510 20 0 0.0 3.2 0.00 0.00 0.00
20260905010109 20 0 0.0 1.6 0.00 0.00 0.00
20260905005708 20 0 0.0 3.2 0.00 0.00 0.00
20260905005306 20 340 4.8 6.4 0.00 0.00 0.00
20260905004857 20 338 0.0 3.2 0.00 0.00 0.00
20260905004455 20 338 1.6 3.2 0.00 0.00 0.00
20260905004054 20 338 1.6 3.2 0.00 0.00 0.00
20260905003652 20 356 1.6 4.8 0.00 0.00 0.00
20260905003250 21 0 1.6 4.8 0.00 0.00 0.00
20260905002849 20 338 1.6 3.2 0.00 0.00 0.00
20260905002448 20 338 3.2 6.4 0.00 0.00 0.00
20260905002047 20 344 1.6 4.8 0.00 0.00 0.00
20260905001644 20 353 3.2 6.4 0.00 0.00 0.00
20260905001243 20 338 1.6 3.2 0.00 0.00 0.00
20260905000835 20 317 6.4 11.3 0.00 0.00 0.00
20260905000433 20 335 6.4 8.0 0.00 0.00 0.00
20260905000031 21 313 6.4 12.9 0.00 0.00 0.00
20260904235630 20 341 4.8 8.0 0.00 0.00 0.00
20260904235228 20 352 1.6 8.0 0.00 0.00 0.00
20260904234827 20 338 4.8 11.3 0.00 0.00 0.00
20260904234424 21 301 3.2 11.3 0.00 0.00 0.00
20260904234023 21 329 8.0 14.5 0.00 0.00 0.00
20260904233622 20 324 8.0 14.5 0.00 0.00 0.00
20260904233220 21 320 6.4 12.9 0.00 0.00 0.00
20260904232811 21 323 6.4 14.5 0.00 0.00 0.00
20260904232409 21 305 6.4 12.9 0.00 0.00 0.00
20260904232008 20 316 8.0 16.1 0.00 0.00 0.00
20260904231607 21 336 11.3 16.1 0.00 0.00 0.00
20260904231205 21 318 9.7 17.7 0.00 0.00 0.00
20260904230803 21 318 11.3 20.9 0.00 0.00 0.00
20260904230401 21 307 11.3 19.3 0.00 0.00 0.00
20260904230000 21 315 9.7 22.5 0.00 0.00 0.00
20260904225600 21 322 12.9 20.9 0.00 0.00 0.00
20260904225156 22 313 12.9 29.0 0.00 0.00 0.00
20260904224749 22 317 11.3 19.3 0.00 0.00 0.00
20260904224347 22 311 9.7 19.3 0.00 0.00 0.00
20260904223946 23 319 14.5 32.2 0.00 0.00 0.00
20260904223544 24 311 12.9 20.9 0.00 0.00 0.00
20260904223142 25 298 19.3 30.6 0.00 0.00 0.00
20260904222741 25 286 22.5 29.0 0.00 0.00 0.00
20260904222339 26 236 16.1 22.5 0.00 0.00 0.00
20260904221937 26 241 14.5 20.9 0.00 0.00 0.00
20260904221536 26 225 17.7 32.2 0.00 0.00 0.00
20260904221134 26 224 14.5 29.0 0.00 0.00 0.00
20260904220726 26 230 14.5 24.1 0.00 0.00 0.00
20260904220324 26 231 17.7 32.2 0.00 0.00 0.00
20260904215922 26 240 16.1 25.7 0.00 0.00 0.00
20260904215521 26 228 17.7 29.0 0.00 0.00 0.00
20260904215119 26 226 17.7 24.1 0.00 0.00 0.00
20260904214718 26 219 12.9 24.1 0.00 0.00 0.00
20260904214315 26 221 11.3 17.7 0.00 0.00 0.00
20260904213914 26 225 11.3 17.7 0.00 0.00 0.00
20260904213513 26 218 12.9 24.1 0.00 0.00 0.00
20260904213111 26 223 12.9 19.3 0.00 0.00 0.00
20260904212702 26 229 16.1 27.4 0.00 0.00 0.00
20260904212300 26 235 16.1 33.8 0.00 0.00 0.00
20260904211859 26 235 14.5 17.7 0.00 0.00 0.00
20260904211458 26 220 14.5 27.4 0.00 0.00 0.00
20260904211054 26 222 11.3 19.3 0.00 0.00 0.00
20260904210653 26 207 9.7 25.7 0.00 0.00 0.00
20260904210251 26 207 12.9 22.5 0.00 0.00 0.00
20260904205850 26 200 16.1 29.0 0.00 0.00 0.00
20260904205449 26 202 12.9 19.3 0.00 0.00 0.00
20260904205046 26 206 14.5 24.1 0.00 0.00 0.00
20260904204638 26 205 17.7 30.6 0.00 0.00 0.00
20260904204236 26 212 17.7 22.5 0.00 0.00 0.00
20260904203835 26 210 16.1 25.7 0.00 0.00 0.00
20260904203433 26 209 22.5 35.4 0.00 0.00 0.00
20260904203031 26 204 20.9 38.6 0.00 0.00 0.00
20260904202630 26 206 19.3 33.8 0.00 0.00 0.00
20260904202228 26 200 19.3 37.0 0.00 0.00 0.00
20260904201826 26 206 20.9 33.8 0.00 0.00 0.00
20260904201425 26 213 19.3 35.4 0.00 0.00 0.00
20260904201023 26 205 17.7 25.7 0.00 0.00 0.00
20260904200615 26 205 14.5 24.1 0.00 0.00 0.00
20260904200212 25 199 16.1 22.5 0.00 0.00 0.00
20260904195811 25 201 16.1 30.6 0.00 0.00 0.00
20260904195410 26 201 20.9 32.2 0.00 0.00 0.00
20260904195008 25 199 14.5 27.4 0.00 0.00 0.00
20260904194607 25 201 16.1 24.1 0.00 0.00 0.00
20260904194204 25 207 16.1 24.1 0.00 0.00 0.00
20260904193803 25 211 11.3 20.9 0.00 0.00 0.00
20260904193402 25 207 14.5 27.4 0.00 0.00 0.00
20260904193000 25 199 11.3 16.1 0.00 0.00 0.00
20260904192551 24 178 8.0 12.9 0.00 0.00 0.00
20260904192149 24 160 6.4 12.9 0.00 0.00 0.00
20260904191748 24 164 6.4 12.9 0.00 0.00 0.00
20260904191347 24 161 6.4 9.7 0.00 0.00 0.00
20260904190944 23 151 4.8 12.9 0.00 0.00 0.00
20260904190543 24 156 6.4 11.3 0.00 0.00 0.00
20260904190142 24 153 8.0 11.3 0.00 0.00 0.00
20260904185741 25 174 3.2 8.0 0.00 0.00 0.00
20260904185338 25 185 6.4 9.7 0.00 0.00 0.00
20260904184937 25 188 4.8 12.9 0.00 0.00 0.00
20260904184529 25 180 4.8 6.4 0.00 0.00 0.00
20260904184127 25 180 1.6 6.4 0.00 0.00 0.00
20260904183726 25 180 4.8 9.7 0.00 0.00 0.00
20260904183324 25 180 6.4 9.7 0.00 0.00 0.00
20260904182921 25 189 6.4 9.7 0.00 0.00 0.00
20260904182520 25 199 8.0 9.7 0.00 0.00 0.00
20260904182119 25 192 4.8 8.0 0.00 0.00 0.00
20260904181716 25 195 9.7 19.3 0.00 0.00 0.00
20260904181315 25 202 4.8 8.0 0.00 0.00 0.00
20260904180914 25 188 6.4 12.9 0.00 0.00 0.00
20260904180506 25 201 9.7 12.9 0.00 0.00 0.00
20260904175702 25 195 9.7 12.9 0.00 0.00 0.00
20260904175301 25 189 11.3 16.1 0.00 0.00 0.00
20260904174859 25 185 12.9 16.1 0.00 0.00 0.00
20260904174457 26 192 11.3 16.1 0.00 0.00 0.00
20260904174055 26 186 12.9 19.3 0.00 0.00 0.00
20260904173654 26 185 12.9 19.3 0.00 0.00 0.00
20260904173252 26 200 12.9 19.3 0.00 0.00 0.00
20260904172850 26 172 11.3 14.5 0.00 0.00 0.00
20260904172441 26 185 11.3 14.5 0.00 0.00 0.00
20260904172039 26 183 12.9 16.1 0.00 0.00 0.00
20260904171238 26 202 9.7 16.1 0.00 0.00 0.00
20260904170834 26 202 14.5 17.7 0.00 0.00 0.00
20260904170434 26 194 16.1 27.4 0.00 0.00 0.00
20260904170032 26 209 9.7 14.5 0.00 0.00 0.00
20260904165631 26 205 11.3 17.7 0.00 0.00 0.00
20260904165229 26 208 11.3 17.7 0.00 0.00 0.00
20260904164827 26 205 11.3 17.7 0.00 0.00 0.00
20260904164419 26 215 11.3 19.3 0.00 0.00 0.00
20260904164017 27 203 9.7 16.1 0.00 0.00 0.00
20260904163615 27 206 12.9 19.3 0.00 0.00 0.00
20260904163214 27 217 14.5 25.7 0.00 0.00 0.00
20260904162812 27 212 16.1 22.5 0.00 0.00 0.00
20260904162411 27 200 17.7 32.2 0.00 0.00 0.00
20260904162009 28 205 14.5 20.9 0.00 0.00 0.00
20260904161607 27 196 16.1 29.0 0.00 0.00 0.00
20260904161206 27 195 12.9 19.3 0.00 0.00 0.00
20260904160804 26 212 12.9 24.1 0.00 0.00 0.00
20260904160356 26 197 12.9 20.9 0.00 0.00 0.00
20260904155953 26 213 12.9 22.5 0.00 0.00 0.00
20260904155552 26 197 9.7 14.5 0.00 0.00 0.00
20260904155151 26 202 16.1 25.7 0.00 0.00 0.00
20260904154750 26 201 12.9 17.7 0.00 0.00 0.00
20260904154347 26 203 9.7 16.1 0.00 0.00 0.00
20260904153945 26 206 11.3 16.1 0.00 0.00 0.00
20260904153544 26 210 12.9 19.3 0.00 0.00 0.00
20260904153143 26 224 12.9 20.9 0.00 0.00 0.00
20260904152740 26 207 12.9 25.7 0.00 0.00 0.00
20260904152332 26 214 11.3 17.7 0.00 0.00 0.00
20260904151930 26 208 14.5 22.5 0.00 0.00 0.00
20260904151530 26 221 12.9 22.5 0.00 0.00 0.00
20260904151128 26 227 11.3 16.1 0.00 0.00 0.00
20260904150725 26 225 16.1 22.5 0.00 0.00 0.00
20260904150325 26 214 16.1 32.2 0.00 0.00 0.00
20260904145923 26 216 17.7 27.4 0.00 0.00 0.00
20260904145521 26 216 14.5 24.1 0.00 0.00 0.00
20260904145119 26 213 14.5 22.5 0.00 0.00 0.00
20260904144716 26 224 16.1 22.5 0.00 0.00 0.00
20260904144308 26 230 17.7 30.6 0.00 0.00 0.00
20260904143907 26 225 17.7 30.6 0.00 0.00 0.00
20260904143504 26 205 20.9 29.0 0.00 0.00 0.00
20260904143103 26 231 17.7 29.0 0.00 0.00 0.00
20260904142701 26 225 17.7 25.7 0.00 0.00 0.00
20260904142300 27 208 19.3 30.6 0.00 0.00 0.00
20260904141857 27 207 14.5 22.5 0.00 0.00 0.00
20260904141456 26 217 12.9 24.1 0.00 0.00 0.00
20260904141055 26 204 20.9 38.6 0.00 0.00 0.00
20260904140653 26 222 19.3 30.6 0.00 0.00 0.00
20260904140245 26 215 22.5 35.4 0.00 0.00 0.00
20260904135842 26 210 16.1 22.5 0.00 0.00 0.00
20260904135441 26 206 17.7 27.4 0.00 0.00 0.00
20260904135040 26 224 14.5 25.7 0.00 0.00 0.00
20260904134638 26 232 14.5 22.5 0.00 0.00 0.00
20260904134236 26 232 14.5 22.5 0.00 0.00 0.00
20260904133834 26 225 17.7 41.8 0.00 0.00 0.00
20260904133433 26 229 17.7 27.4 0.00 0.00 0.00
20260904133033 26 226 22.5 30.6 0.00 0.00 0.00
20260904132629 26 223 19.3 27.4 0.00 0.00 0.00
20260904132221 26 207 19.3 38.6 0.00 0.00 0.00
20260904131820 25 214 20.9 38.6 0.00 0.00 0.00
20260904131419 25 215 16.1 29.0 0.00 0.00 0.00
20260904131017 25 205 17.7 29.0 0.00 0.00 0.00
20260904130614 26 212 19.3 32.2 0.00 0.00 0.00
20260904130213 26 208 16.1 27.4 0.00 0.00 0.00
20260904125811 26 212 12.9 19.3 0.00 0.00 0.00
20260904125410 26 224 16.1 27.4 0.00 0.00 0.00
20260904125008 26 226 17.7 27.4 0.00 0.00 0.00
20260904124606 26 233 17.7 27.4 0.00 0.00 0.00
20260904124158 26 213 16.1 22.5 0.00 0.00 0.00
20260904123756 26 234 14.5 22.5 0.00 0.00 0.00
20260904123354 26 229 11.3 19.3 0.00 0.00 0.00
20260904122953 26 236 11.3 16.1 0.00 0.00 0.00
20260904122551 26 242 11.3 16.1 0.00 0.00 0.00
20260904122150 26 230 14.5 25.7 0.00 0.00 0.00
20260904121747 26 238 14.5 22.5 0.00 0.00 0.00
20260904121346 26 217 12.9 20.9 0.00 0.00 0.00
20260904120945 25 225 16.1 27.4 0.00 0.00 0.00
20260904120543 25 245 20.9 40.2 0.00 0.00 0.00
20260904120134 25 237 20.9 33.8 0.00 0.00 0.00
20260904115732 25 247 12.9 19.3 0.00 0.00 0.00
20260904115331 25 248 16.1 25.7 0.00 0.00 0.00
20260904114930 25 208 19.3 32.2 0.00 0.00 0.00
20260904114528 25 230 16.1 30.6 0.00 0.00 0.00
20260904114126 25 224 16.1 25.7 0.00 0.00 0.00
20260904113724 25 227 19.3 33.8 0.00 0.00 0.00
20260904113323 25 231 19.3 29.0 0.00 0.00 0.00
20260904112922 25 217 20.9 37.0 0.00 0.00 0.00
20260904112519 24 221 16.1 22.5 0.00 0.00 0.00
20260904112111 24 231 12.9 19.3 0.00 0.00 0.00
20260904111710 25 229 14.5 30.6 0.00 0.00 0.00
20260904111309 24 235 19.3 29.0 0.00 0.00 0.00
20260904110906 24 211 17.7 32.2 0.00 0.00 0.00
20260904110505 24 226 14.5 27.4 0.00 0.00 0.00
20260904110104 24 238 14.5 22.5 0.00 0.00 0.00
20260904105702 24 235 17.7 24.1 0.00 0.00 0.00
20260904105300 24 231 17.7 20.9 0.00 0.00 0.00
20260904104859 24 206 16.1 27.4 0.00 0.00 0.00
20260904104457 24 221 16.1 27.4 0.00 0.00 0.00
20260904104049 24 220 16.1 27.4 0.00 0.00 0.00
20260904103647 24 224 14.5 20.9 0.00 0.00 0.00
20260904103245 24 246 11.3 20.9 0.00 0.00 0.00
20260904102844 24 247 16.1 22.5 0.00 0.00 0.00
20260904102442 24 222 9.7 16.1 0.00 0.00 0.00
20260904101638 23 208 22.5 33.8 0.00 0.00 0.00
20260904100836 23 226 14.5 24.1 0.00 0.00 0.00
20260904100442 23 220 14.5 30.6 0.00 0.00 0.00
20260904100434 23 220 14.5 30.6 0.00 0.00 0.00
20260904100024 24 223 19.3 29.0 0.00 0.00 0.00
20260904095222 23 244 14.5 24.1 0.00 0.00 0.00
20260904094821 23 259 12.9 27.4 0.00 0.00 0.00
20260904094418 23 250 14.5 19.3 0.00 0.00 0.00
20260904094017 23 227 11.3 20.9 0.00 0.00 0.00
20260904093615 23 240 14.5 24.1 0.00 0.00 0.00
20260904093214 23 229 16.1 25.7 0.00 0.00 0.00
20260904092813 23 202 17.7 29.0 0.00 0.00 0.00
20260904092002 23 193 14.5 24.1 0.00 0.00 0.00
20260904091159 23 223 12.9 27.4 0.00 0.00 0.00
20260904090757 22 229 9.7 17.7 0.00 0.00 0.00
20260904090355 22 237 12.9 25.7 0.00 0.00 0.00
20260904085954 22 224 16.1 27.4 0.00 0.00 0.00
20260904085552 22 221 14.5 22.5 0.00 0.00 0.00
20260904085150 22 234 12.9 22.5 0.00 0.00 0.00
20260904084749 22 216 14.5 20.9 0.00 0.00 0.00
20260904084348 22 209 16.1 22.5 0.00 0.00 0.00
20260904083939 22 207 14.5 25.7 0.00 0.00 0.00
20260904083537 22 214 16.1 25.7 0.00 0.00 0.00
20260904083136 22 222 16.1 27.4 0.00 0.00 0.00
20260904082333 22 220 14.5 25.7 0.00 0.00 0.00
20260904081932 21 248 16.1 22.5 0.00 0.00 0.00
20260904081529 22 241 9.7 17.7 0.00 0.00 0.00
20260904081128 21 231 12.9 19.3 0.00 0.00 0.00
20260904080727 21 218 12.9 19.3 0.00 0.00 0.00
20260904080325 21 231 14.5 25.7 0.00 0.00 0.00
20260904075916 21 220 12.9 17.7 0.00 0.00 0.00
20260904075514 21 228 11.3 19.3 0.00 0.00 0.00
20260904075113 21 221 11.3 19.3 0.00 0.00 0.00
20260904074712 21 242 9.7 17.7 0.00 0.00 0.00
20260904074309 21 230 14.5 20.9 0.00 0.00 0.00
20260904073908 21 236 12.9 17.7 0.00 0.00 0.00
20260904073506 21 220 17.7 25.7 0.00 0.00 0.00
20260904073105 21 258 16.1 24.1 0.00 0.00 0.00
20260904072702 21 250 16.1 24.1 0.00 0.00 0.00
20260904072300 21 225 16.1 25.7 0.00 0.00 0.00
20260904071852 21 229 14.5 19.3 0.00 0.00 0.00
20260904071449 21 223 14.5 22.5 0.00 0.00 0.00
20260904071048 21 234 11.3 16.1 0.00 0.00 0.00
20260904070646 21 257 12.9 20.9 0.00 0.00 0.00
20260904070244 21 254 14.5 19.3 0.00 0.00 0.00
20260904065843 21 246 11.3 16.1 0.00 0.00 0.00
20260904065441 21 249 14.5 17.7 0.00 0.00 0.00
20260904065039 21 246 8.0 19.3 0.00 0.00 0.00
20260904064638 21 248 9.7 14.5 0.00 0.00 0.00
20260904063829 21 225 9.7 16.1 0.00 0.00 0.00
20260904063426 21 229 12.9 19.3 0.00 0.00 0.00
20260904063025 21 223 6.4 9.7 0.00 0.00 0.00
20260904062624 21 216 8.0 16.1 0.00 0.00 0.00
20260904062222 21 229 9.7 16.1 0.00 0.00 0.00
20260904061820 21 235 12.9 16.1 0.00 0.00 0.00
20260904061418 20 218 11.3 16.1 0.00 0.00 0.00
20260904061017 20 222 8.0 11.3 0.00 0.00 0.00
20260904060616 20 229 9.7 14.5 0.00 0.00 0.00
20260904060214 20 230 11.3 16.1 0.00 0.00 0.00
20260904055805 20 230 11.3 14.5 0.00 0.00 0.00
20260904055403 20 219 9.7 16.1 0.00 0.00 0.00
20260904055002 20 218 8.0 14.5 0.00 0.00 0.00
20260904054601 20 224 11.3 16.1 0.00 0.00 0.00
20260904054158 20 229 11.3 16.1 0.00 0.00 0.00
20260904053757 20 225 9.7 14.5 0.00 0.00 0.00
20260904053355 20 218 8.0 12.9 0.00 0.00 0.00
20260904052954 20 220 6.4 11.3 0.00 0.00 0.00
20260904052552 20 221 9.7 16.1 0.00 0.00 0.00
20260904052150 20 213 4.8 8.0 0.00 0.00 0.00
20260904051743 20 223 9.7 14.5 0.00 0.00 0.00
20260904051341 20 223 8.0 14.5 0.00 0.00 0.00
20260904050938 20 223 9.7 17.7 0.00 0.00 0.00
20260904050537 20 222 8.0 12.9 0.00 0.00 0.00
20260904050136 20 220 8.0 14.5 0.00 0.00 0.00
20260904045333 20 227 12.9 19.3 0.00 0.00 0.00
20260904044931 20 235 12.9 19.3 0.00 0.00 0.00
20260904044529 20 225 11.3 20.9 0.00 0.00 0.00
20260904044128 20 215 11.3 17.7 0.00 0.00 0.00
20260904043317 20 226 8.0 14.5 0.00 0.00 0.00
20260904042916 20 215 8.0 16.1 0.00 0.00 0.00
20260904042515 20 223 8.0 16.1 0.00 0.00 0.00
20260904042113 20 224 8.0 11.3 0.00 0.00 0.00
20260904041711 20 234 6.4 12.9 0.00 0.00 0.00
20260904041309 20 235 6.4 9.7 0.00 0.00 0.00
20260904040908 20 234 6.4 8.0 0.00 0.00 0.00
20260904040507 20 242 9.7 16.1 0.00 0.00 0.00